Location: Goettingen
(51.5300°N, 9.9433°E)
Time: 07:29:26
(UTC+02:00)

ISS - Pass Details

Date: 14 May 2021
Orbit: 417 x 422 km, 51.6° (Epoch: 18 May)

Event Time Altitude Azimuth Distance (km) Brightness Sun altitude
Rises 04:26:34 0° 284° (WNW) 2,371 -0.2 -8.5°
Reaches altitude 10° 04:28:49 10° 273° (W) 1,505 -1.3 -8.3°
Maximum altitude 04:31:48 29° 211° (SSW) 798 -2.9 -7.9°
Drops below altitude 10° 04:34:46 10° 149° (SSE) 1,500 -1.1 -7.6°
Sets 04:37:01 0° 138° (SE) 2,362 0.1 -7.3°
